Location: Cartignies
(50.0929°N, 3.8447°E)
Time: 14:31:38
(UTC+00:00)

Cosmos 962 Rocket - Pass Details

Date: 12 January 2026
Orbit: 951 x 998 km, 83.0° (Epoch: 15 February)

Event Time Altitude Azimuth Distance (km) Brightness Sun altitude
Rises 17:07:16 0° 351° (N) 3,673 7.4 -9.4°
Reaches altitude 10° 17:09:48 10° 354° (N) 2,729 6.7 -9.8°
Maximum altitude 17:16:02 69° 78° (ENE) 1,049 4.5 -10.7°
Drops below altitude 10° 17:22:19 10° 162° (SSE) 2,742 6.9 -11.7°
Sets 17:24:51 0° 164° (SSE) 3,692 7.6 -12.0°
